Regional Weather Roundup
Issued by NWS Jackson, KY

Home | Current Version | Previous Version | Graphics & Text | Print | Product List | Glossary On
Versions: 1 2 3 4 5 6 7 8 9 10 11 12 13 14 15 16 17 18 19 20 21 22 23 24 25 26 27 28 29 30 31 32 33 34 35 36 37 38 39 40 41 42 43 44 45 46 47 48 49 50
000
ASUS43 KJKL 191719
RWRJKL

EAST KENTUCKY HOURLY WEATHER ROUNDUP
NATIONAL WEATHER SERVICE JACKSON KY
100 PM EDT SAT APR 19 2014

NOTE: "FAIR" INDICATES FEW OR NO CLOUDS BELOW 12,000 FEET WITH
NO SIGNIFICANT WEATHER AND/OR OBSTRUCTIONS TO VISIBILITY.

* THESE REPORTS ARE NOT UNDER NWS QUALITY CONTROL AND MAY NOT
  REPORT WEATHER SUCH AS PRECIPITATION AND FOG.

KYZ079-080-083-085-087-088-110-112-115-119-120-191800
...EASTERN KENTUCKY...

CITY           SKY/WX    TMP DP  RH WIND       PRES   REMARKS
JACKSON        SUNNY     71  35  26 VRB7      30.22F
LONDON         MOSUNNY   71  35  26 NE13      30.20F
SOMERSET*      SUNNY     68  36  30 E14G23    30.21F
MONTICELLO*    MOSUNNY   71  41  33 NE17G24   30.22F
WILLIAMSBURG*  SUNNY     68  39  34 NE16      30.19F
MIDDLESBORO*   PTSUNNY   70  37  30 NE9G17    30.18R
HARLAN APT*    MOSUNNY   68  32  26 CALM      30.19R
BLACK MTN*       N/A     63  30  29 N6          N/A
PIKEVILLE APT* SUNNY     68  36  30 NE12G21   30.21F
BIG SANDY*     SUNNY     70  38  30 NE13G20   30.22S
ASHLAND*       SUNNY     70  41  35 E7        30.23F
MOREHEAD APT*  SUNNY     70  36  28 MISG      30.25
$$

KYZ035-036-041-042-044-050-067-078-099-191800
...CENTRAL KENTUCKY...

CITY           SKY/WX    TMP DP  RH WIND       PRES   REMARKS
MT STERLING*   SUNNY     68  37  32 E15G22    30.25F
FLEMING/MASON* SUNNY     66  39  37 NE7G17    30.27F
DANVILLE*      SUNNY     68  43  40 NE16      30.25F
LEXINGTON      SUNNY     69  42  37 NE17      30.26F
FRANKFORT      SUNNY     69  41  36 NE10G20   30.26F
$$

KYZ091>093-OHZ055-061-077-WVZ005-015-034-035-042-191800
...SOUTHERN OHIO/WEST VIRGINIA...

CITY           SKY/WX    TMP DP  RH WIND       PRES   REMARKS
COVINGTON      SUNNY     66  40  38 E14       30.30F
COLUMBUS       SUNNY     63  38  39 NE7       30.33F
DAYTON         SUNNY     61  41  47 E10G16    30.34F
WILMINGTON     SUNNY     62  39  42 E13       30.31F
HUNTINGTON     SUNNY     68  39  34 E15       30.24F
CHARLESTON     CLOUDY    67  35  30 NE14      30.23F
PINEVILLE*     PTSUNNY   70  38  30 MISG      30.25F
BECKLEY        CLOUDY    64  34  32 N12       30.22F
BLUEFIELD      PTSUNNY   64  32  30 NE12      30.23F
$$

VAZ002-007-008-TNZ017-027-036-066-071-191800
...SOUTHWEST VIRGINIA/EAST TENNESSEE...

CITY           SKY/WX    TMP DP  RH WIND       PRES   REMARKS
WISE*          MOSUNNY   66  30  26 N16G25    30.22S
ABINGDON*      PTSUNNY   67  33  28 SE15G23   30.18F
BRISTOL        PTSUNNY   72  35  25 NE12G21   30.16F
KNOXVILLE      CLOUDY    63  40  42 E9        30.15S
OAK RIDGE      CLOUDY    71  37  28 NE9G21    30.16F
CROSSVILLE     PTSUNNY   65  35  33 NE16      30.19F
NASHVILLE      MOSUNNY   73  41  31 NE18G26   30.21F
$$

...KEY TO REMARKS...
VSB - VISIBILITY IN MILES
WCI - WIND CHILL INDEX
HX  - HEAT INDEX

$$



USA.gov is the U.S. government's official web portal to all federal, state and local government web resources and services.